Terug naar catalogus

INTELSAT 603

ActiefCommunicatieGEO
NORAD 20523·PAYLOAD· XX

Gelanceerd Mar 14, 1990 vanaf Cape Canaveral Space Force Station

Loading…

TLE

VersSource: Space-Track

Epoch: Sep 14, 2026, 00:10 UTC

1 20523U 90021A   26257.00718978 -.00000086  00000-0  00000-0 0  9991
2 20523  14.0720   8.6624 0003659  78.2047 280.2536  0.99483385126289

Volg INTELSAT 603 in realtime met AllMySat

Download on the App Store